Lawrence, MA

11:07 PM EST on February 17, 2018 (GMT -0500)
Lawrence Municipal

Weather History for KLWM - May, 2014

Change the Weather History Date:

Sunday, May 4, 2014

  Actual Average Record
Temperature  
Mean Temperature 54 °F -  
Max Temperature 60 °F 64 °F 88 °F (2001)
Min Temperature 48 °F 42 °F 33 °F (1946)
Degree Days  
Heating Degree Days 12    
Growing Degree Days 4 (Base 50)    
Moisture  
Dew Point 37 °F    
Average Humidity 54    
Maximum Humidity 74    
Minimum Humidity 36    
Precipitation  
Precipitation 0.00 in - - ()
Sea Level Pressure  
Sea Level Pressure 29.60 in    
Wind  
Wind Speed 11 mph (WSW)    
Max Wind Speed 24 mph    
Max Gust Speed 39 mph    
Visibility 10 miles    
Events Rain    
Averages and records for this station are not official NWS values.
T = Trace of Precipitation, MM = Missing Value Source: NWS Daily Summary

Daily Weather History Graph

Daily Weather History Graph

Search for Another Location

Airport or City:

Trip Planner

Search our weather history database for the weather conditions in past years. The results will help you decide how hot, cold, wet, or windy it might be!

Date:

Astronomy

May. 04, 2014 Rise Set
Actual Time 5:34 AM EDT 7:48 PM EDT
Civil Twilight 5:03 AM EDT 8:19 PM EDT
Nautical Twilight 4:25 AM EDT 8:58 PM EDT
Astronomical Twilight 3:42 AM EDT 9:40 PM EDT
Moon 9:55 AM EDT (5/4) No Moon Set
Length of Visible Light 15h 15m
Length of Day
14h 13m
Waxing Crescent, 27% of the Moon is Illuminated
May 4
Waxing Crescent
May 6
First Quarter
May 14
Full
May 21
Last Quarter
May 28
New

Hourly Weather History & Observations

Time (EDT) Temp. Dew Point Humidity Pressure Visibility Wind Dir Wind Speed Gust Speed Precip Events Conditions
12:54 AM 57.0 °F 39.9 °F 53% 29.70 in 10.0 mi South 3.5 mph - N/A   Partly Cloudy
1:54 AM 54.0 °F 39.9 °F 59% 29.68 in 10.0 mi South 4.6 mph - N/A   Partly Cloudy
2:54 AM 53.1 °F 39.9 °F 61% 29.67 in 10.0 mi SSW 5.8 mph - N/A   Clear
3:54 AM 53.1 °F 43.0 °F 69% 29.66 in 10.0 mi SSW 5.8 mph - 0.00 in Rain Light Rain
4:54 AM 51.1 °F 43.0 °F 74% 29.65 in 10.0 mi SW 6.9 mph - 0.00 in   Mostly Cloudy
5:05 AM 52.0 °F 44.1 °F 74% 29.65 in 10.0 mi SW 8.1 mph - N/A   Mostly Cloudy
5:22 AM 52.0 °F 44.1 °F 74% 29.64 in 10.0 mi WSW 10.4 mph - N/A   Scattered Clouds
5:54 AM 51.1 °F 43.0 °F 74% 29.65 in 10.0 mi SW 6.9 mph - N/A   Clear
6:54 AM 53.1 °F 42.1 °F 66% 29.64 in 10.0 mi SW 11.5 mph - N/A   Clear
7:54 AM 54.0 °F 39.9 °F 59% 29.63 in 10.0 mi WSW 11.5 mph - N/A   Clear
8:54 AM 55.9 °F 37.0 °F 49% 29.60 in 10.0 mi WSW 17.3 mph 28.8 mph N/A   Mostly Cloudy
9:54 AM 59.0 °F 33.1 °F 38% 29.59 in 10.0 mi WSW 23.0 mph 28.8 mph N/A   Scattered Clouds
10:54 AM 57.0 °F 30.0 °F 36% 29.58 in 10.0 mi West 20.7 mph 28.8 mph N/A   Mostly Cloudy
11:54 AM 57.9 °F 30.9 °F 36% 29.56 in 10.0 mi WSW 15.0 mph 28.8 mph N/A   Overcast
12:54 PM 57.0 °F 30.9 °F 37% 29.55 in 10.0 mi West 24.2 mph 36.8 mph N/A   Overcast
1:54 PM 55.9 °F 36.0 °F 47% 29.55 in 10.0 mi West 16.1 mph 28.8 mph 0.00 in   Mostly Cloudy
2:54 PM 55.9 °F 34.0 °F 44% 29.53 in 10.0 mi West 23.0 mph 39.1 mph N/A   Overcast
3:54 PM 57.0 °F 34.0 °F 42% 29.53 in 10.0 mi West 19.6 mph 33.4 mph N/A   Mostly Cloudy
4:54 PM 55.0 °F 34.0 °F 45% 29.55 in 10.0 mi West 19.6 mph 32.2 mph N/A   Scattered Clouds
5:54 PM 54.0 °F 33.1 °F 45% 29.55 in 10.0 mi West 16.1 mph 32.2 mph N/A   Overcast
6:54 PM 53.1 °F 33.1 °F 47% 29.57 in 10.0 mi West 20.7 mph 29.9 mph N/A   Overcast
7:54 PM 52.0 °F 34.0 °F 50% 29.58 in 10.0 mi West 11.5 mph 19.6 mph N/A   Mostly Cloudy
8:54 PM 51.1 °F 34.0 °F 52% 29.59 in 10.0 mi West 13.8 mph 19.6 mph N/A   Overcast
9:54 PM 48.9 °F 34.0 °F 56% 29.60 in 10.0 mi WNW 12.7 mph 24.2 mph N/A   Clear
10:54 PM 48.9 °F 35.1 °F 59% 29.61 in 10.0 mi West 11.5 mph 20.7 mph N/A   Mostly Cloudy
11:54 PM 48.9 °F 36.0 °F 61% 29.61 in 10.0 mi WNW 15.0 mph 18.4 mph N/A   Overcast